Weather History for KHKY - September, 2013

Change the Weather History Date:

Wednesday, September 25, 2013

  Actual Average Record
Temperature  
Mean Temperature 62 °F -  
Max Temperature 66 °F 75 °F 92 °F (1984)
Min Temperature 57 °F 56 °F 41 °F (1950)
Degree Days  
Heating Degree Days 4    
Growing Degree Days 12 (Base 50)    
Moisture  
Dew Point 59 °F    
Average Humidity 90    
Maximum Humidity 100    
Minimum Humidity 73    
Precipitation  
Precipitation 0.23 in - - ()
Sea Level Pressure  
Sea Level Pressure 29.91 in    
Wind  
Wind Speed 1 mph (NE)    
Max Wind Speed 6 mph    
Max Gust Speed -    
Visibility 6 miles    
Events Rain    
Averages and records for this station are not official NWS values.
T = Trace of Precipitation, MM = Missing Value Source: NWS Daily Summary

Daily Weather History Graph

Daily Weather History Graph

Search for Another Location

Airport or City:

Trip Planner

Search our weather history database for the weather conditions in past years. The results will help you decide how hot, cold, wet, or windy it might be!

Date:

Astronomy

Sep. 25, 2013 Rise Set
Actual Time 7:15 AM EDT 7:17 PM EDT
Civil Twilight 6:50 AM EDT 7:43 PM EDT
Nautical Twilight 6:20 AM EDT 8:12 PM EDT
Astronomical Twilight 5:50 AM EDT 8:42 PM EDT
Moon 11:33 PM EDT (9/25) 1:10 PM EDT (9/25)
Length of Visible Light 12h 52m
Length of Day
12h 01m
Waning Gibbous, 64% of the Moon is Illuminated
Sep 25
Waning Gibbous
Sep 26
Last Quarter
Oct 4
New
Oct 11
First Quarter
Oct 18
Full

Hourly Weather History & Observations

Time (EDT) Temp. Dew Point Humidity Pressure Visibility Wind Dir Wind Speed Gust Speed Precip Events Conditions
12:53 AM 62.1 °F 59.0 °F 90% 29.91 in 8.0 mi Calm Calm - N/A   Overcast
1:53 AM 62.1 °F 59.0 °F 90% 29.89 in 7.0 mi Calm Calm - N/A   Mostly Cloudy
2:53 AM 61.0 °F 57.9 °F 90% 29.90 in 7.0 mi Calm Calm - N/A   Partly Cloudy
3:53 AM 61.0 °F 59.0 °F 93% 29.88 in 6.0 mi Calm Calm - N/A   Overcast
4:25 AM 60.8 °F 59.0 °F 94% 29.93 in 2.5 mi Calm Calm - 0.04 in Rain Rain
4:36 AM 60.8 °F 59.0 °F 94% 29.92 in 3.0 mi Calm Calm - 0.05 in Rain Rain
4:53 AM 61.0 °F 59.0 °F 93% 29.87 in 4.0 mi Calm Calm - 0.06 in Rain Light Rain
5:53 AM 62.1 °F 59.0 °F 90% 29.88 in 5.0 mi Calm Calm - 0.02 in Rain Light Rain
6:53 AM 61.0 °F 57.9 °F 90% 29.88 in 6.0 mi Calm Calm - 0.00 in   Clear
7:53 AM 61.0 °F 59.0 °F 93% 29.89 in 2.5 mi Calm Calm - N/A   Scattered Clouds
8:21 AM 62.6 °F 60.8 °F 94% 29.94 in 3.0 mi NNE 3.5 mph - N/A   Overcast
8:53 AM 63.0 °F 60.1 °F 90% 29.89 in 6.0 mi Calm Calm - N/A   Mostly Cloudy
9:37 AM 62.6 °F 59.0 °F 88% 29.96 in 9.0 mi SW 3.5 mph - N/A   Mostly Cloudy
9:41 AM 62.6 °F 59.0 °F 88% 29.95 in 9.0 mi Calm Calm - N/A   Mostly Cloudy
9:53 AM 63.0 °F 59.0 °F 87% 29.90 in 8.0 mi SSW 3.5 mph - N/A   Mostly Cloudy
10:38 AM 62.6 °F 59.0 °F 88% 29.95 in 7.0 mi Calm Calm - 0.00 in Rain Light Rain
10:53 AM 63.0 °F 59.0 °F 87% 29.91 in 4.0 mi Calm Calm - 0.01 in Rain Light Rain
11:01 AM 62.6 °F 60.8 °F 94% 29.96 in 4.0 mi Calm Calm - 0.00 in Rain Light Rain
11:20 AM 62.6 °F 60.8 °F 94% 29.96 in 2.5 mi Calm Calm - 0.04 in Rain Rain
11:29 AM 62.6 °F 60.8 °F 94% 29.95 in 2.5 mi East 3.5 mph - 0.06 in Rain Rain
11:37 AM 62.6 °F 60.8 °F 94% 29.96 in 2.5 mi Calm Calm - 0.08 in Rain Light Rain
11:45 AM 62.6 °F 60.8 °F 94% 29.96 in 3.0 mi Calm Calm - 0.08 in Rain Light Rain
11:53 AM 63.0 °F 61.0 °F 93% 29.91 in 3.0 mi South 3.5 mph - 0.08 in Rain Light Rain
12:06 PM 62.6 °F 60.8 °F 94% 29.96 in 5.0 mi SSW 4.6 mph - 0.00 in Rain Light Rain
12:17 PM 64.4 °F 60.8 °F 88% 29.96 in 6.0 mi Calm Calm - 0.00 in   Overcast
12:25 PM 64.4 °F 60.8 °F 88% 29.96 in 7.0 mi Calm Calm - 0.00 in   Overcast
12:53 PM 64.9 °F 60.1 °F 84% 29.91 in 10.0 mi West 4.6 mph - 0.00 in   Overcast
1:53 PM 66.9 °F 57.9 °F 73% 29.89 in 10.0 mi Calm Calm - 0.00 in   Overcast
2:03 PM 66.2 °F 57.2 °F 73% 29.93 in 10.0 mi Calm Calm - N/A   Overcast
2:53 PM 66.0 °F 59.0 °F 78% 29.87 in 10.0 mi Calm Calm - N/A   Overcast
3:53 PM 64.0 °F 60.1 °F 87% 29.87 in 3.0 mi Calm Calm - 0.03 in Rain Heavy Rain
4:16 PM 64.4 °F 60.8 °F 88% 29.91 in 2.5 mi Calm Calm - 0.02 in Rain Light Rain
4:21 PM 64.4 °F 62.6 °F 94% 29.91 in 2.5 mi Calm Calm - 0.02 in Rain Light Rain
4:30 PM 64.4 °F 60.8 °F 88% 29.91 in 6.0 mi NNE 3.5 mph - 0.02 in   Overcast
4:39 PM 64.4 °F 60.8 °F 88% 29.90 in 9.0 mi NE 4.6 mph - 0.02 in   Overcast
4:53 PM 66.0 °F 61.0 °F 84% 29.85 in 7.0 mi ENE 4.6 mph - 0.02 in   Overcast
5:13 PM 64.4 °F 60.8 °F 88% 29.90 in 5.0 mi ENE 3.5 mph - 0.00 in Rain Light Rain
5:28 PM 64.4 °F 60.8 °F 88% 29.90 in 7.0 mi Calm Calm - 0.00 in   Overcast
5:53 PM 63.0 °F 61.0 °F 93% 29.86 in 4.0 mi North 5.8 mph - 0.00 in   Overcast
6:53 PM 63.0 °F 60.1 °F 90% 29.87 in 6.0 mi NE 3.5 mph - 0.00 in   Overcast
7:53 PM 62.1 °F 59.0 °F 90% 29.88 in 10.0 mi NNE 3.5 mph - N/A   Overcast
8:53 PM 60.1 °F 57.0 °F 90% 29.88 in 10.0 mi Calm Calm - N/A   Mostly Cloudy
9:53 PM 59.0 °F 55.9 °F 90% 29.89 in 9.0 mi Calm Calm - N/A   Mostly Cloudy
10:53 PM 59.0 °F 57.0 °F 93% 29.89 in 9.0 mi Calm Calm - N/A   Clear
11:42 PM 59.0 °F 57.2 °F 94% 29.94 in 5.0 mi Calm Calm - 0.01 in   Scattered Clouds
11:50 PM 57.2 °F 57.2 °F 100% 29.94 in 4.0 mi Calm Calm - 0.01 in   Mostly Cloudy
11:53 PM 57.9 °F 55.9 °F 93% 29.90 in 2.0 mi Calm Calm - 0.01 in   Mostly Cloudy
11:57 PM 57.2 °F 57.2 °F 100% 29.94 in 0.8 mi Calm Calm - N/A   Mist